Year,Month,Day,Hour,Minute,Value (Times are PST for temperature in C)
2012,09,20,00,00,9.80
2012,09,20,00,01,9.80
2012,09,20,00,02,9.80
2012,09,20,00,03,9.80
2012,09,20,00,04,9.80
2012,09,20,00,05,9.70
2012,09,20,00,06,9.70
2012,09,20,00,07,9.70
2012,09,20,00,08,9.70
2012,09,20,00,09,9.80
2012,09,20,00,10,9.80
2012,09,20,00,11,9.80
2012,09,20,00,12,9.80
2012,09,20,00,13,9.80
2012,09,20,00,14,9.80
2012,09,20,00,15,9.80
2012,09,20,00,16,9.80
2012,09,20,00,17,9.80
2012,09,20,00,18,9.80
2012,09,20,00,19,9.80
2012,09,20,00,20,9.80
2012,09,20,00,21,9.80
2012,09,20,00,22,9.70
2012,09,20,00,23,9.70
2012,09,20,00,24,9.70
2012,09,20,00,25,9.70
2012,09,20,00,26,9.70
2012,09,20,00,27,9.70
2012,09,20,00,28,9.60
2012,09,20,00,29,9.60
2012,09,20,00,30,9.60
2012,09,20,00,31,9.60
2012,09,20,00,32,9.60
2012,09,20,00,33,9.60
2012,09,20,00,34,9.50
2012,09,20,00,35,9.50
2012,09,20,00,36,9.50
2012,09,20,00,37,9.50
2012,09,20,00,38,9.50
2012,09,20,00,39,9.50
2012,09,20,00,40,9.50
2012,09,20,00,41,9.50
2012,09,20,00,42,9.60
2012,09,20,00,43,9.60
2012,09,20,00,44,9.60
2012,09,20,00,45,9.60
2012,09,20,00,46,9.50
2012,09,20,00,47,9.50
2012,09,20,00,48,9.50
2012,09,20,00,49,9.50
2012,09,20,00,50,9.40
2012,09,20,00,51,9.40
2012,09,20,00,52,9.50
2012,09,20,00,53,9.50
2012,09,20,00,54,9.50
2012,09,20,00,55,9.50
2012,09,20,00,56,9.40
2012,09,20,00,57,9.40
2012,09,20,00,58,9.40
2012,09,20,00,59,9.40
2012,09,20,01,00,9.30
2012,09,20,01,01,9.30
2012,09,20,01,02,9.30
2012,09,20,01,03,9.30
2012,09,20,01,04,9.20
2012,09,20,01,05,9.20
2012,09,20,01,06,9.20
2012,09,20,01,07,9.10
2012,09,20,01,08,9.10
2012,09,20,01,09,9.10
2012,09,20,01,10,9.10
2012,09,20,01,11,9.00
2012,09,20,01,12,9.00
2012,09,20,01,13,9.00
2012,09,20,01,14,8.90
2012,09,20,01,15,8.90
2012,09,20,01,16,8.90
2012,09,20,01,17,8.90
2012,09,20,01,18,8.90
2012,09,20,01,19,8.90
2012,09,20,01,20,8.90
2012,09,20,01,21,8.90
2012,09,20,01,22,8.90
2012,09,20,01,23,8.90
2012,09,20,01,24,8.90
2012,09,20,01,25,9.00
2012,09,20,01,26,8.90
2012,09,20,01,27,8.90
2012,09,20,01,28,8.90
2012,09,20,01,29,8.90
2012,09,20,01,30,8.90
2012,09,20,01,31,8.90
2012,09,20,01,32,8.90
2012,09,20,01,33,8.90
2012,09,20,01,34,8.90
2012,09,20,01,35,8.90
2012,09,20,01,36,8.90
2012,09,20,01,37,8.90
2012,09,20,01,38,8.90
2012,09,20,01,39,8.90
2012,09,20,01,40,8.90
2012,09,20,01,41,8.90
2012,09,20,01,42,8.90
2012,09,20,01,43,8.90
2012,09,20,01,44,8.90
2012,09,20,01,45,8.90
2012,09,20,01,46,8.80
2012,09,20,01,47,8.80
2012,09,20,01,48,8.80
2012,09,20,01,49,8.80
2012,09,20,01,50,8.80
2012,09,20,01,51,8.80
2012,09,20,01,52,8.70
2012,09,20,01,53,8.70
2012,09,20,01,54,8.70
2012,09,20,01,55,8.70
2012,09,20,01,56,8.70
2012,09,20,01,57,8.70
2012,09,20,01,58,8.60
2012,09,20,01,59,8.60
2012,09,20,02,00,8.60
2012,09,20,02,01,8.60
2012,09,20,02,02,8.50
2012,09,20,02,03,8.50
2012,09,20,02,04,8.50
2012,09,20,02,05,8.40
2012,09,20,02,06,8.40
2012,09,20,02,07,8.40
2012,09,20,02,08,8.40
2012,09,20,02,09,8.40
2012,09,20,02,10,8.40
2012,09,20,02,11,8.40
2012,09,20,02,12,8.40
2012,09,20,02,13,8.40
2012,09,20,02,14,8.40
2012,09,20,02,15,8.40
2012,09,20,02,16,8.30
2012,09,20,02,17,8.30
2012,09,20,02,18,8.30
2012,09,20,02,19,8.30
2012,09,20,02,20,8.30
2012,09,20,02,21,8.30
2012,09,20,02,22,8.30
2012,09,20,02,23,8.40
2012,09,20,02,24,8.40
2012,09,20,02,25,8.40
2012,09,20,02,26,8.40
2012,09,20,02,27,8.40
2012,09,20,02,28,8.40
2012,09,20,02,29,8.40
2012,09,20,02,30,8.40
2012,09,20,02,31,8.40
2012,09,20,02,32,8.40
2012,09,20,02,33,8.40
2012,09,20,02,34,8.30
2012,09,20,02,35,8.30
2012,09,20,02,36,8.30
2012,09,20,02,37,8.20
2012,09,20,02,38,8.20
2012,09,20,02,39,8.10
2012,09,20,02,40,8.00
2012,09,20,02,41,8.00
2012,09,20,02,42,8.00
2012,09,20,02,43,7.90
2012,09,20,02,44,7.90
2012,09,20,02,45,7.90
2012,09,20,02,46,7.80
2012,09,20,02,47,7.80
2012,09,20,02,48,7.80
2012,09,20,02,49,7.80
2012,09,20,02,50,7.90
2012,09,20,02,51,7.90
2012,09,20,02,52,8.00
2012,09,20,02,53,8.10
2012,09,20,02,54,8.20
2012,09,20,02,55,8.30
2012,09,20,02,56,8.30
2012,09,20,02,57,8.40
2012,09,20,02,58,8.40
2012,09,20,02,59,8.40
2012,09,20,03,00,8.40
2012,09,20,03,01,8.40
2012,09,20,03,02,8.40
2012,09,20,03,03,8.40
2012,09,20,03,04,8.30
2012,09,20,03,05,8.30
2012,09,20,03,06,8.30
2012,09,20,03,07,8.20
2012,09,20,03,08,8.20
2012,09,20,03,09,8.20
2012,09,20,03,10,8.20
2012,09,20,03,11,8.10
2012,09,20,03,12,8.10
2012,09,20,03,13,8.10
2012,09,20,03,14,8.10
2012,09,20,03,15,8.10
2012,09,20,03,16,8.10
2012,09,20,03,17,8.00
2012,09,20,03,18,8.00
2012,09,20,03,19,7.90
2012,09,20,03,20,7.90
2012,09,20,03,21,7.90
2012,09,20,03,22,7.80
2012,09,20,03,23,7.80
2012,09,20,03,24,7.80
2012,09,20,03,25,7.80
2012,09,20,03,26,7.70
2012,09,20,03,27,7.70
2012,09,20,03,28,7.70
2012,09,20,03,29,7.70
2012,09,20,03,30,7.70
2012,09,20,03,31,7.60
2012,09,20,03,32,7.60
2012,09,20,03,33,7.60
2012,09,20,03,34,7.60
2012,09,20,03,35,7.60
2012,09,20,03,36,7.60
2012,09,20,03,37,7.50
2012,09,20,03,38,7.50
2012,09,20,03,39,7.50
2012,09,20,03,40,7.60
2012,09,20,03,41,7.60
2012,09,20,03,42,7.70
2012,09,20,03,43,7.70
2012,09,20,03,44,7.70
2012,09,20,03,45,7.60
2012,09,20,03,46,7.60
2012,09,20,03,47,7.60
2012,09,20,03,48,7.60
2012,09,20,03,49,7.60
2012,09,20,03,50,7.60
2012,09,20,03,51,7.50
2012,09,20,03,52,7.50
2012,09,20,03,53,7.40
2012,09,20,03,54,7.40
2012,09,20,03,55,7.40
2012,09,20,03,56,7.40
2012,09,20,03,57,7.40
2012,09,20,03,58,7.40
2012,09,20,03,59,7.40
2012,09,20,04,00,7.40
2012,09,20,04,01,7.40
2012,09,20,04,02,7.40
2012,09,20,04,03,7.50
2012,09,20,04,04,7.60
2012,09,20,04,05,7.70
2012,09,20,04,06,7.70
2012,09,20,04,07,7.70
2012,09,20,04,08,7.60
2012,09,20,04,09,7.50
2012,09,20,04,10,7.50
2012,09,20,04,11,7.40
2012,09,20,04,12,7.30
2012,09,20,04,13,7.30
2012,09,20,04,14,7.20
2012,09,20,04,15,7.20
2012,09,20,04,16,7.20
2012,09,20,04,17,7.20
2012,09,20,04,18,7.20
2012,09,20,04,19,7.10
2012,09,20,04,20,7.10
2012,09,20,04,21,7.10
2012,09,20,04,22,7.10
2012,09,20,04,23,7.00
2012,09,20,04,24,7.00
2012,09,20,04,25,7.00
2012,09,20,04,26,6.90
2012,09,20,04,27,6.90
2012,09,20,04,28,6.90
2012,09,20,04,29,6.90
2012,09,20,04,30,6.90
2012,09,20,04,31,6.90
2012,09,20,04,32,6.90
2012,09,20,04,33,6.80
2012,09,20,04,34,6.80
2012,09,20,04,35,6.80
2012,09,20,04,36,6.80
2012,09,20,04,37,6.80
2012,09,20,04,38,6.90
2012,09,20,04,39,6.90
2012,09,20,04,40,6.90
2012,09,20,04,41,7.00
2012,09,20,04,42,7.00
2012,09,20,04,43,7.10
2012,09,20,04,44,7.20
2012,09,20,04,45,7.20
2012,09,20,04,46,7.30
2012,09,20,04,47,7.40
2012,09,20,04,48,7.50
2012,09,20,04,49,7.50
2012,09,20,04,50,7.60
2012,09,20,04,51,7.60
2012,09,20,04,52,7.60
2012,09,20,04,53,7.60
2012,09,20,04,54,7.70
2012,09,20,04,55,7.70
2012,09,20,04,56,7.70
2012,09,20,04,57,7.70
2012,09,20,04,58,7.70
2012,09,20,04,59,7.70
2012,09,20,05,00,7.70
2012,09,20,05,01,7.70
2012,09,20,05,02,7.70
2012,09,20,05,03,7.70
2012,09,20,05,04,7.60
2012,09,20,05,05,7.60
2012,09,20,05,06,7.60
2012,09,20,05,07,7.50
2012,09,20,05,08,7.50
2012,09,20,05,09,7.50
2012,09,20,05,10,7.40
2012,09,20,05,11,7.40
2012,09,20,05,12,7.40
2012,09,20,05,13,7.30
2012,09,20,05,14,7.30
2012,09,20,05,15,7.30
2012,09,20,05,16,7.30
2012,09,20,05,17,7.30
2012,09,20,05,18,7.30
2012,09,20,05,19,7.30
2012,09,20,05,20,7.30
2012,09,20,05,21,7.30
2012,09,20,05,22,7.30
2012,09,20,05,23,7.20
2012,09,20,05,24,7.20
2012,09,20,05,25,7.20
2012,09,20,05,26,7.20
2012,09,20,05,27,7.20
2012,09,20,05,28,7.20
2012,09,20,05,29,7.20
2012,09,20,05,30,7.20
2012,09,20,05,31,7.20
2012,09,20,05,32,7.20
2012,09,20,05,33,7.20
2012,09,20,05,34,7.20
2012,09,20,05,35,7.20
2012,09,20,05,36,7.10
2012,09,20,05,37,7.10
2012,09,20,05,38,7.10
2012,09,20,05,39,7.00
2012,09,20,05,40,7.00
2012,09,20,05,41,7.00
2012,09,20,05,42,6.90
2012,09,20,05,43,6.90
2012,09,20,05,44,6.90
2012,09,20,05,45,6.90
2012,09,20,05,46,6.90
2012,09,20,05,47,6.90
2012,09,20,05,48,6.90
2012,09,20,05,49,6.90
2012,09,20,05,50,6.90
2012,09,20,05,51,6.90
2012,09,20,05,52,6.90
2012,09,20,05,53,6.90
2012,09,20,05,54,6.90
2012,09,20,05,55,6.90
2012,09,20,05,56,6.90
2012,09,20,05,57,6.90
2012,09,20,05,58,6.90
2012,09,20,05,59,6.90
2012,09,20,06,00,6.90
2012,09,20,06,01,6.90
2012,09,20,06,02,6.90
2012,09,20,06,03,6.90
2012,09,20,06,04,7.00
2012,09,20,06,05,7.00
2012,09,20,06,06,6.90
2012,09,20,06,07,6.90
2012,09,20,06,08,6.90
2012,09,20,06,09,6.90
2012,09,20,06,10,6.90
2012,09,20,06,11,6.90
2012,09,20,06,12,6.90
2012,09,20,06,13,6.80
2012,09,20,06,14,6.80
2012,09,20,06,15,6.80
2012,09,20,06,16,6.80
2012,09,20,06,17,6.80
2012,09,20,06,18,6.80
2012,09,20,06,19,6.80
2012,09,20,06,20,6.80
2012,09,20,06,21,6.80
2012,09,20,06,22,6.80
2012,09,20,06,23,6.80
2012,09,20,06,24,6.80
2012,09,20,06,25,6.80
2012,09,20,06,26,6.90
2012,09,20,06,27,6.90
2012,09,20,06,28,7.00
2012,09,20,06,29,7.00
2012,09,20,06,30,7.10
2012,09,20,06,31,7.10
2012,09,20,06,32,7.20
2012,09,20,06,33,7.20
2012,09,20,06,34,7.20
2012,09,20,06,35,7.20
2012,09,20,06,36,7.20
2012,09,20,06,37,7.20
2012,09,20,06,38,7.20
2012,09,20,06,39,7.20
2012,09,20,06,40,7.20
2012,09,20,06,41,7.20
2012,09,20,06,42,7.20
2012,09,20,06,43,7.30
2012,09,20,06,44,7.30
2012,09,20,06,45,7.40
2012,09,20,06,46,7.40
2012,09,20,06,47,7.40
2012,09,20,06,48,7.40
2012,09,20,06,49,7.40
2012,09,20,06,50,7.40
2012,09,20,06,51,7.30
2012,09,20,06,52,7.40
2012,09,20,06,53,7.40
2012,09,20,06,54,7.50
2012,09,20,06,55,7.50
2012,09,20,06,56,7.60
2012,09,20,06,57,7.60
2012,09,20,06,58,7.60
2012,09,20,06,59,7.60
2012,09,20,07,00,7.50
2012,09,20,07,01,7.50
2012,09,20,07,02,7.50
2012,09,20,07,03,7.50
2012,09,20,07,04,7.40
2012,09,20,07,05,7.40
2012,09,20,07,06,7.40
2012,09,20,07,07,7.30
2012,09,20,07,08,7.30
2012,09,20,07,09,7.20
2012,09,20,07,10,7.20
2012,09,20,07,11,7.10
2012,09,20,07,12,7.10
2012,09,20,07,13,7.10
2012,09,20,07,14,7.00
2012,09,20,07,15,7.00
2012,09,20,07,16,6.90
2012,09,20,07,17,6.90
2012,09,20,07,18,6.80
2012,09,20,07,19,6.90
2012,09,20,07,20,6.90
2012,09,20,07,21,6.90
2012,09,20,07,22,6.90
2012,09,20,07,23,7.00
2012,09,20,07,24,7.10
2012,09,20,07,25,7.10
2012,09,20,07,26,7.20
2012,09,20,07,27,7.20
2012,09,20,07,28,7.20
2012,09,20,07,29,7.20
2012,09,20,07,30,7.20
2012,09,20,07,31,7.20
2012,09,20,07,32,7.20
2012,09,20,07,33,7.10
2012,09,20,07,34,7.00
2012,09,20,07,35,6.90
2012,09,20,07,36,6.90
2012,09,20,07,37,7.00
2012,09,20,07,38,7.00
2012,09,20,07,39,7.10
2012,09,20,07,40,7.10
2012,09,20,07,41,7.10
2012,09,20,07,42,7.10
2012,09,20,07,43,7.00
2012,09,20,07,44,7.00
2012,09,20,07,45,7.00
2012,09,20,07,46,6.90
2012,09,20,07,47,6.90
2012,09,20,07,48,6.90
2012,09,20,07,49,6.90
2012,09,20,07,50,7.00
2012,09,20,07,51,7.00
2012,09,20,07,52,7.00
2012,09,20,07,53,7.10
2012,09,20,07,54,7.10
2012,09,20,07,55,7.20
2012,09,20,07,56,7.20
2012,09,20,07,57,7.20
2012,09,20,07,58,7.30
2012,09,20,07,59,7.30
2012,09,20,08,00,7.40
2012,09,20,08,01,7.40
2012,09,20,08,02,7.50
2012,09,20,08,03,7.50
2012,09,20,08,04,7.60
2012,09,20,08,05,7.60
2012,09,20,08,06,7.70
2012,09,20,08,07,7.70
2012,09,20,08,08,7.70
2012,09,20,08,09,7.80
2012,09,20,08,10,7.80
2012,09,20,08,11,7.90
2012,09,20,08,12,7.90
2012,09,20,08,13,8.00
2012,09,20,08,14,8.00
2012,09,20,08,15,8.10
2012,09,20,08,16,8.20
2012,09,20,08,17,8.20
2012,09,20,08,18,8.30
2012,09,20,08,19,8.40
2012,09,20,08,20,8.50
2012,09,20,08,21,8.50
2012,09,20,08,22,8.60
2012,09,20,08,23,8.70
2012,09,20,08,24,8.80
2012,09,20,08,25,8.90
2012,09,20,08,26,9.00
2012,09,20,08,27,9.10
2012,09,20,08,28,9.20
2012,09,20,08,29,9.30
2012,09,20,08,30,9.30
2012,09,20,08,31,9.40
2012,09,20,08,32,9.50
2012,09,20,08,33,9.60
2012,09,20,08,34,9.70
2012,09,20,08,35,9.80
2012,09,20,08,36,9.90
2012,09,20,08,37,9.90
2012,09,20,08,38,10.00
2012,09,20,08,39,10.10
2012,09,20,08,40,10.20
2012,09,20,08,41,10.30
2012,09,20,08,42,10.40
2012,09,20,08,43,10.50
2012,09,20,08,44,10.50
2012,09,20,08,45,10.60
2012,09,20,08,46,10.60
2012,09,20,08,47,10.70
2012,09,20,08,48,10.70
2012,09,20,08,49,10.80
2012,09,20,08,50,10.80
2012,09,20,08,51,10.90
2012,09,20,08,52,11.00
2012,09,20,08,53,11.10
2012,09,20,08,54,11.10
2012,09,20,08,55,11.20
2012,09,20,08,56,11.30
2012,09,20,08,57,11.30
2012,09,20,08,58,11.50
2012,09,20,08,59,11.60
2012,09,20,09,00,11.70
2012,09,20,09,01,11.80
2012,09,20,09,02,11.80
2012,09,20,09,03,11.90
2012,09,20,09,04,12.10
2012,09,20,09,05,12.20
2012,09,20,09,06,12.30
2012,09,20,09,07,12.40
2012,09,20,09,08,12.50
2012,09,20,09,09,12.60
2012,09,20,09,10,12.70
2012,09,20,09,11,12.80
2012,09,20,09,12,12.90
2012,09,20,09,13,12.90
2012,09,20,09,14,13.00
2012,09,20,09,15,13.10
2012,09,20,09,16,13.20
2012,09,20,09,17,13.20
2012,09,20,09,18,13.30
2012,09,20,09,19,13.30
2012,09,20,09,20,13.30
2012,09,20,09,21,13.40
2012,09,20,09,22,13.40
2012,09,20,09,23,13.50
2012,09,20,09,24,13.60
2012,09,20,09,25,13.70
2012,09,20,09,26,13.80
2012,09,20,09,27,13.90
2012,09,20,09,28,13.90
2012,09,20,09,29,14.00
2012,09,20,09,30,14.10
2012,09,20,09,31,14.20
2012,09,20,09,32,14.30
2012,09,20,09,33,14.30
2012,09,20,09,34,14.40
2012,09,20,09,35,14.40
2012,09,20,09,36,14.50
2012,09,20,09,37,14.50
2012,09,20,09,38,14.60
2012,09,20,09,39,14.70
2012,09,20,09,40,14.70
2012,09,20,09,41,14.80
2012,09,20,09,42,14.90
2012,09,20,09,43,15.00
2012,09,20,09,44,15.00
2012,09,20,09,45,15.00
2012,09,20,09,46,15.00
2012,09,20,09,47,15.20
2012,09,20,09,48,15.30
2012,09,20,09,49,15.50
2012,09,20,09,50,15.60
2012,09,20,09,51,15.70
2012,09,20,09,52,15.80
2012,09,20,09,53,15.90
2012,09,20,09,54,16.00
2012,09,20,09,55,16.20
2012,09,20,09,56,16.30
2012,09,20,09,57,16.40
2012,09,20,09,58,16.50
2012,09,20,09,59,16.50
2012,09,20,10,00,16.60
2012,09,20,10,01,16.70
2012,09,20,10,02,16.70
2012,09,20,10,03,16.80
2012,09,20,10,04,16.80
2012,09,20,10,05,16.80
2012,09,20,10,06,16.90
2012,09,20,10,07,16.90
2012,09,20,10,08,16.90
2012,09,20,10,09,17.00
2012,09,20,10,10,17.00
2012,09,20,10,11,17.00
2012,09,20,10,12,17.00
2012,09,20,10,13,17.00
2012,09,20,10,14,17.10
2012,09,20,10,15,17.10
2012,09,20,10,16,17.20
2012,09,20,10,17,17.20
2012,09,20,10,18,17.30
2012,09,20,10,19,17.30
2012,09,20,10,20,17.40
2012,09,20,10,21,17.50
2012,09,20,10,22,17.60
2012,09,20,10,23,17.60
2012,09,20,10,24,17.50
2012,09,20,10,25,17.50
2012,09,20,10,26,17.50
2012,09,20,10,27,17.60
2012,09,20,10,28,17.60
2012,09,20,10,29,17.70
2012,09,20,10,30,17.70
2012,09,20,10,31,17.70
2012,09,20,10,32,17.80
2012,09,20,10,33,17.70
2012,09,20,10,34,17.70
2012,09,20,10,35,17.80
2012,09,20,10,36,17.80
2012,09,20,10,37,17.80
2012,09,20,10,38,17.80
2012,09,20,10,39,17.90
2012,09,20,10,40,17.90
2012,09,20,10,41,17.90
2012,09,20,10,42,17.90
2012,09,20,10,43,17.90
2012,09,20,10,44,17.90
2012,09,20,10,45,17.90
2012,09,20,10,46,18.00
2012,09,20,10,47,18.00
2012,09,20,10,48,18.00
2012,09,20,10,49,18.00
2012,09,20,10,50,18.00
2012,09,20,10,51,17.90
2012,09,20,10,52,17.90
2012,09,20,10,53,17.90
2012,09,20,10,54,17.80
2012,09,20,10,55,17.80
2012,09,20,10,56,17.80
2012,09,20,10,57,17.90
2012,09,20,10,58,17.90
2012,09,20,10,59,18.00
2012,09,20,11,00,18.00
2012,09,20,11,01,18.00
2012,09,20,11,02,18.10
2012,09,20,11,03,18.10
2012,09,20,11,04,18.10
2012,09,20,11,05,18.10
2012,09,20,11,06,18.10
2012,09,20,11,07,18.10
2012,09,20,11,08,18.10
2012,09,20,11,09,18.20
2012,09,20,11,10,18.20
2012,09,20,11,11,18.30
2012,09,20,11,12,18.30
2012,09,20,11,13,18.30
2012,09,20,11,14,18.30
2012,09,20,11,15,18.30
2012,09,20,11,16,18.40
2012,09,20,11,17,18.50
2012,09,20,11,18,18.50
2012,09,20,11,19,18.50
2012,09,20,11,20,18.50
2012,09,20,11,21,18.40
2012,09,20,11,22,18.40
2012,09,20,11,23,18.40
2012,09,20,11,24,18.40
2012,09,20,11,25,18.40
2012,09,20,11,26,18.50
2012,09,20,11,27,18.50
2012,09,20,11,28,18.60
2012,09,20,11,29,18.60
2012,09,20,11,30,18.60
2012,09,20,11,31,18.60
2012,09,20,11,32,18.60
2012,09,20,11,33,18.70
2012,09,20,11,34,18.70
2012,09,20,11,35,18.70
2012,09,20,11,36,18.70
2012,09,20,11,37,18.80
2012,09,20,11,38,18.90
2012,09,20,11,39,18.90
2012,09,20,11,40,18.90
2012,09,20,11,41,18.90
2012,09,20,11,42,19.00
2012,09,20,11,43,19.10
2012,09,20,11,44,19.10
2012,09,20,11,45,19.20
2012,09,20,11,46,19.20
2012,09,20,11,47,19.20
2012,09,20,11,48,19.20
2012,09,20,11,49,19.20
2012,09,20,11,50,19.20
2012,09,20,11,51,19.20
2012,09,20,11,52,19.20
2012,09,20,11,53,19.20
2012,09,20,11,54,19.20
2012,09,20,11,55,19.20
2012,09,20,11,56,19.30
2012,09,20,11,57,19.30
2012,09,20,11,58,19.40
2012,09,20,11,59,19.40
2012,09,20,12,00,19.50
2012,09,20,12,01,19.60
2012,09,20,12,02,19.60
2012,09,20,12,03,19.70
2012,09,20,12,04,19.70
2012,09,20,12,05,19.80
2012,09,20,12,06,19.80
2012,09,20,12,07,19.90
2012,09,20,12,08,19.90
2012,09,20,12,09,19.90
2012,09,20,12,10,19.90
2012,09,20,12,11,19.90
2012,09,20,12,12,19.90
2012,09,20,12,13,19.90
2012,09,20,12,14,20.00
2012,09,20,12,15,20.00
2012,09,20,12,16,20.10
2012,09,20,12,17,20.20
2012,09,20,12,18,20.20
2012,09,20,12,19,20.30
2012,09,20,12,20,20.30
2012,09,20,12,21,20.30
2012,09,20,12,22,20.30
2012,09,20,12,23,20.30
2012,09,20,12,24,20.30
2012,09,20,12,25,20.30
2012,09,20,12,26,20.40
2012,09,20,12,27,20.40
2012,09,20,12,28,20.50
2012,09,20,12,29,20.60
2012,09,20,12,30,20.60
2012,09,20,12,31,20.70
2012,09,20,12,32,20.70
2012,09,20,12,33,20.70
2012,09,20,12,34,20.70
2012,09,20,12,35,20.70
2012,09,20,12,36,20.70
2012,09,20,12,37,20.70
2012,09,20,12,38,20.70
2012,09,20,12,39,20.80
2012,09,20,12,40,20.80
2012,09,20,12,41,20.80
2012,09,20,12,42,20.90
2012,09,20,12,43,20.90
2012,09,20,12,44,21.00
2012,09,20,12,45,21.00
2012,09,20,12,46,21.10
2012,09,20,12,47,21.10
2012,09,20,12,48,21.10
2012,09,20,12,49,21.20
2012,09,20,12,50,21.20
2012,09,20,12,51,21.20
2012,09,20,12,52,21.10
2012,09,20,12,53,21.10
2012,09,20,12,54,21.10
2012,09,20,12,55,21.20
2012,09,20,12,56,21.20
2012,09,20,12,57,21.20
2012,09,20,12,58,21.30
2012,09,20,12,59,21.40
2012,09,20,13,00,21.50
2012,09,20,13,01,21.30
2012,09,20,13,02,21.20
2012,09,20,13,03,21.00
2012,09,20,13,04,20.80
2012,09,20,13,05,20.60
2012,09,20,13,06,20.50
2012,09,20,13,07,20.40
2012,09,20,13,08,20.30
2012,09,20,13,09,20.20
2012,09,20,13,10,20.20
2012,09,20,13,11,20.20
2012,09,20,13,12,20.20
2012,09,20,13,13,20.20
2012,09,20,13,14,20.20
2012,09,20,13,15,20.20
2012,09,20,13,16,20.10
2012,09,20,13,17,20.10
2012,09,20,13,18,20.10
2012,09,20,13,19,20.00
2012,09,20,13,20,20.00
2012,09,20,13,21,19.90
2012,09,20,13,22,20.00
2012,09,20,13,23,20.10
2012,09,20,13,24,20.10
2012,09,20,13,25,20.20
2012,09,20,13,26,20.30
2012,09,20,13,27,20.30
2012,09,20,13,28,20.40
2012,09,20,13,29,20.40
2012,09,20,13,30,20.40
2012,09,20,13,31,20.40
2012,09,20,13,32,20.40
2012,09,20,13,33,20.40
2012,09,20,13,34,20.30
2012,09,20,13,35,20.30
2012,09,20,13,36,20.40
2012,09,20,13,37,20.50
2012,09,20,13,38,20.60
2012,09,20,13,39,20.70
2012,09,20,13,40,20.80
2012,09,20,13,41,20.80
2012,09,20,13,42,20.70
2012,09,20,13,43,20.70
2012,09,20,13,44,20.70
2012,09,20,13,45,20.60
2012,09,20,13,46,20.50
2012,09,20,13,47,20.50
2012,09,20,13,48,20.40
2012,09,20,13,49,20.40
2012,09,20,13,50,20.40
2012,09,20,13,51,20.40
2012,09,20,13,52,20.50
2012,09,20,13,53,20.50
2012,09,20,13,54,20.50
2012,09,20,13,55,20.40
2012,09,20,13,56,20.40
2012,09,20,13,57,20.40
2012,09,20,13,58,20.40
2012,09,20,13,59,20.40
2012,09,20,14,00,20.40
2012,09,20,14,01,20.40
2012,09,20,14,02,20.30
2012,09,20,14,03,20.40
2012,09,20,14,04,20.60
2012,09,20,14,05,20.60
2012,09,20,14,06,20.70
2012,09,20,14,07,20.80
2012,09,20,14,08,20.80
2012,09,20,14,09,20.70
2012,09,20,14,10,20.70
2012,09,20,14,11,20.70
2012,09,20,14,12,20.70
2012,09,20,14,13,20.60
2012,09,20,14,14,20.50
2012,09,20,14,15,20.50
2012,09,20,14,16,20.50
2012,09,20,14,17,20.50
2012,09,20,14,18,20.50
2012,09,20,14,19,20.60
2012,09,20,14,20,20.70
2012,09,20,14,21,20.70
2012,09,20,14,22,20.70
2012,09,20,14,23,20.80
2012,09,20,14,24,20.90
2012,09,20,14,25,20.90
2012,09,20,14,26,20.90
2012,09,20,14,27,20.90
2012,09,20,14,28,20.80
2012,09,20,14,29,20.70
2012,09,20,14,30,20.60
2012,09,20,14,31,20.50
2012,09,20,14,32,20.50
2012,09,20,14,33,20.30
2012,09,20,14,34,20.20
2012,09,20,14,35,20.20
2012,09,20,14,36,20.20
2012,09,20,14,37,20.20
2012,09,20,14,38,20.30
2012,09,20,14,39,20.30
2012,09,20,14,40,20.30
2012,09,20,14,41,20.30
2012,09,20,14,42,20.50
2012,09,20,14,43,20.60
2012,09,20,14,44,20.70
2012,09,20,14,45,20.70
2012,09,20,14,46,20.70
2012,09,20,14,47,20.60
2012,09,20,14,48,20.70
2012,09,20,14,49,20.70
2012,09,20,14,50,20.70
2012,09,20,14,51,20.70
2012,09,20,14,52,20.60
2012,09,20,14,53,20.50
2012,09,20,14,54,20.50
2012,09,20,14,55,20.60
2012,09,20,14,56,20.70
2012,09,20,14,57,20.80
2012,09,20,14,58,20.80
2012,09,20,14,59,20.80
2012,09,20,15,00,20.90
2012,09,20,15,01,20.90
2012,09,20,15,02,20.90
2012,09,20,15,03,20.80
2012,09,20,15,04,20.90
2012,09,20,15,05,20.90
2012,09,20,15,06,20.80
2012,09,20,15,07,20.60
2012,09,20,15,08,20.60
2012,09,20,15,09,20.70
2012,09,20,15,10,20.70
2012,09,20,15,11,20.70
2012,09,20,15,12,20.60
2012,09,20,15,13,20.60
2012,09,20,15,14,20.60
2012,09,20,15,15,20.60
2012,09,20,15,16,20.70
2012,09,20,15,17,20.60
2012,09,20,15,18,20.50
2012,09,20,15,19,20.50
2012,09,20,15,20,20.40
2012,09,20,15,21,20.40
2012,09,20,15,22,20.30
2012,09,20,15,23,20.30
2012,09,20,15,24,20.20
2012,09,20,15,25,20.10
2012,09,20,15,26,20.10
2012,09,20,15,27,20.00
2012,09,20,15,28,19.90
2012,09,20,15,29,19.90
2012,09,20,15,30,19.90
2012,09,20,15,31,19.90
2012,09,20,15,32,19.90
2012,09,20,15,33,19.90
2012,09,20,15,34,20.00
2012,09,20,15,35,20.00
2012,09,20,15,36,20.00
2012,09,20,15,37,20.00
2012,09,20,15,38,20.00
2012,09,20,15,39,19.90
2012,09,20,15,40,19.90
2012,09,20,15,41,20.00
2012,09,20,15,42,20.00
2012,09,20,15,43,20.10
2012,09,20,15,44,20.10
2012,09,20,15,45,20.20
2012,09,20,15,46,20.30
2012,09,20,15,47,20.40
2012,09,20,15,48,20.50
2012,09,20,15,49,20.60
2012,09,20,15,50,20.70
2012,09,20,15,51,20.70
2012,09,20,15,52,20.80
2012,09,20,15,53,20.80
2012,09,20,15,54,20.80
2012,09,20,15,55,20.80
2012,09,20,15,56,20.80
2012,09,20,15,57,20.80
2012,09,20,15,58,20.90
2012,09,20,15,59,20.90
2012,09,20,16,00,20.90
2012,09,20,16,01,21.00
2012,09,20,16,02,21.00
2012,09,20,16,03,20.90
2012,09,20,16,04,20.90
2012,09,20,16,05,20.90
2012,09,20,16,06,20.90
2012,09,20,16,07,21.00
2012,09,20,16,08,21.00
2012,09,20,16,09,21.00
2012,09,20,16,10,21.00
2012,09,20,16,11,20.90
2012,09,20,16,12,20.90
2012,09,20,16,13,20.90
2012,09,20,16,14,20.90
2012,09,20,16,15,21.00
2012,09,20,16,16,21.10
2012,09,20,16,17,21.20
2012,09,20,16,18,21.20
2012,09,20,16,19,21.20
2012,09,20,16,20,21.20
2012,09,20,16,21,21.20
2012,09,20,16,22,21.20
2012,09,20,16,23,21.20
2012,09,20,16,24,21.10
2012,09,20,16,25,21.10
2012,09,20,16,26,21.00
2012,09,20,16,27,21.00
2012,09,20,16,28,20.90
2012,09,20,16,29,20.90
2012,09,20,16,30,20.90
2012,09,20,16,31,21.00
2012,09,20,16,32,21.00
2012,09,20,16,33,21.10
2012,09,20,16,34,21.10
2012,09,20,16,35,21.10
2012,09,20,16,36,21.10
2012,09,20,16,37,21.10
2012,09,20,16,38,21.20
2012,09,20,16,39,21.20
2012,09,20,16,40,21.30
2012,09,20,16,41,21.30
2012,09,20,16,42,21.30
2012,09,20,16,43,21.30
2012,09,20,16,44,21.30
2012,09,20,16,45,21.30
2012,09,20,16,46,21.20
2012,09,20,16,47,21.20
2012,09,20,16,48,21.20
2012,09,20,16,49,21.20
2012,09,20,16,50,21.20
2012,09,20,16,51,21.20
2012,09,20,16,52,21.20
2012,09,20,16,53,21.10
2012,09,20,16,54,21.00
2012,09,20,16,55,20.90
2012,09,20,16,56,20.90
2012,09,20,16,57,20.80
2012,09,20,16,58,20.80
2012,09,20,16,59,20.80
2012,09,20,17,00,20.80
2012,09,20,17,01,20.80
2012,09,20,17,02,20.80
2012,09,20,17,03,20.80
2012,09,20,17,04,20.80
2012,09,20,17,05,20.70
2012,09,20,17,06,20.70
2012,09,20,17,07,20.70
2012,09,20,17,08,20.70
2012,09,20,17,09,20.60
2012,09,20,17,10,20.60
2012,09,20,17,11,20.60
2012,09,20,17,12,20.60
2012,09,20,17,13,20.70
2012,09,20,17,14,20.80
2012,09,20,17,15,20.80
2012,09,20,17,16,20.80
2012,09,20,17,17,20.90
2012,09,20,17,18,20.90
2012,09,20,17,19,20.90
2012,09,20,17,20,20.90
2012,09,20,17,21,20.90
2012,09,20,17,22,20.90
2012,09,20,17,23,21.00
2012,09,20,17,24,21.00
2012,09,20,17,25,21.10
2012,09,20,17,26,21.10
2012,09,20,17,27,21.20
2012,09,20,17,28,21.20
2012,09,20,17,29,21.30
2012,09,20,17,30,21.30
2012,09,20,17,31,21.40
2012,09,20,17,32,21.40
2012,09,20,17,33,21.50
2012,09,20,17,34,21.50
2012,09,20,17,35,21.40
2012,09,20,17,36,21.40
2012,09,20,17,37,21.40
2012,09,20,17,38,21.50
2012,09,20,17,39,21.50
2012,09,20,17,40,21.60
2012,09,20,17,41,21.60